CDT,Max TemperatureF,Mean TemperatureF,Min TemperatureF,Max Dew PointF,MeanDew PointF,Min DewpointF,Max Humidity, Mean Humidity, Min Humidity, Max Sea Level PressureIn, Mean Sea Level PressureIn, Min Sea Level PressureIn, Max VisibilityMiles, Mean VisibilityMiles, Min VisibilityMiles, Max Wind SpeedMPH, Mean Wind SpeedMPH, Max Gust SpeedMPH,PrecipitationIn, CloudCover, Events, WindDirDegrees
2012-10-1,80,70,60,72,65,59,100,90,65,29.74,29.62,29.53,10,7,1,12,7,21,0.86,7,Rain,359
2012-10-2,68,62,53,64,59,54,100,86,77,30.02,29.83,29.66,10,9,1,10,4,16,0.03,6,Rain,240
2012-10-3,73,63,53,59,56,52,100,83,50,30.22,30.13,30.03,10,8,0,7,1,,0.00,4,Fog,177
2012-10-4,77,66,55,64,57,54,100,86,50,30.32,30.26,30.21,10,6,0,6,1,,0.00,3,Fog,46
2012-10-5,80,68,57,64,58,54,100,85,39,30.24,30.14,30.02,10,6,0,10,2,,0.00,4,Fog,342
2012-10-6,62,58,53,59,53,46,100,88,77,30.10,30.06,30.00,10,7,2,10,3,,0.03,7,Rain-Thunderstorm,18
2012-10-7,59,54,48,46,43,37,93,73,45,30.20,30.13,30.07,10,8,2,12,5,,0.01,5,,11
2012-10-8,55,52,48,48,46,41,94,84,67,30.22,30.16,30.11,10,8,1,9,4,,0.08,7,Rain,37
2012-10-9,64,53,42,54,47,41,100,84,52,30.18,30.12,30.05,10,8,1,7,1,,0.00,4,,338
2012-10-10,69,58,46,55,51,45,100,82,56,30.23,30.15,30.08,10,9,3,12,2,17,0.00,4,,308
2012-10-11,68,54,41,55,47,41,100,75,43,30.32,30.26,30.22,10,8,2,8,2,,0.00,3,,27
2012-10-12,69,63,57,64,59,54,100,90,78,30.31,30.26,30.22,10,9,1,13,2,24,0.18,7,Rain-Thunderstorm,8
2012-10-13,77,67,57,61,58,54,100,72,57,30.32,30.25,30.19,10,10,5,10,5,18,0.00,5,,160
2012-10-14,73,68,64,66,61,54,94,76,64,30.22,30.09,29.94,10,10,2,13,6,23,0.15,7,Rain-Thunderstorm,209
2012-10-15,73,60,48,66,54,43,100,77,33,30.02,29.97,29.94,10,7,0,13,4,18,0.10,3,Fog-Rain-Thunderstorm,325
2012-10-16,71,56,42,55,48,43,100,81,43,30.05,29.98,29.89,10,6,0,6,1,,0.00,2,Fog,32
2012-10-17,75,62,48,57,48,43,100,69,31,29.95,29.86,29.72,10,8,0,12,2,21,0.00,2,Fog,196
2012-10-18,69,58,46,61,50,36,100,70,32,29.85,29.80,29.72,10,7,2,15,8,25,0.47,3,Rain-Thunderstorm,239
2012-10-19,68,54,41,46,39,32,100,56,26,29.86,29.80,29.74,10,6,2,20,6,26,0.00,3,,247
2012-10-20,66,54,41,48,43,39,100,69,42,30.04,29.95,29.86,10,6,2,12,2,17,0.00,1,,273
2012-10-21,73,57,41,54,46,39,100,78,38,30.19,30.13,30.04,10,6,0,7,1,,0.00,1,Fog,115
2012-10-22,78,63,48,57,51,46,100,75,34,30.24,30.17,30.11,10,8,2,7,1,,0.00,2,,269
2012-10-23,77,62,48,57,51,46,100,76,39,30.21,30.14,30.09,10,6,1,8,1,,0.00,1,,233
2012-10-24,78,62,46,57,52,45,100,79,42,30.21,30.13,30.07,10,7,0,9,1,,0.00,1,Fog,313
2012-10-25,78,63,48,59,54,48,100,77,44,30.12,30.07,30.02,10,7,2,8,1,,0.00,1,,161
2012-10-26,77,65,53,63,56,48,94,77,54,30.08,30.02,29.93,10,6,2,9,2,,0.00,5,,350
2012-10-27,57,52,48,48,44,43,87,78,63,30.04,29.98,29.93,5,4,3,15,9,24,0.00,8,Rain,7
2012-10-28,57,52,46,43,38,30,76,62,41,30.03,29.96,29.90,5,4,2,16,10,29,0.00,7,,7
2012-10-29,53,46,39,32,28,18,75,52,28,30.06,30.00,29.89,5,4,2,16,8,25,0.00,0,,356
2012-10-30,55,48,41,28,23,16,53,38,22,29.88,29.83,29.78,5,4,3,17,9,29,0.00,0,Thunderstorm,306
2012-10-31,62,47,32,30,25,16,87,49,16,29.96,29.91,29.87,5,4,2,13,3,21,0.00,0,,282